Flag for Cuba Weather past 2 weeks in Holguín, Cuba

Now
79 °F

Clear.


Feels Like: 82 °F
Forecast: 72 / 94 °F
Wind: 7 mph from East

Location: Holguin Civ / Mil

Current Time: Aug 4, 2015 at 12:35:20 AM

Latest Report: Aug 3, 2015 at 11:50 PM


Visibility: 5 mi

Pressure: 30.01 "Hg

Humidity: 84%

Dew point: 73 °F

Location of HolguínLocation

Historic Weather in Holguín — Graph

°F

Holguín temperature yesterday

Maximum temperature yesterday: 95 °F (at 3:50 PM)
Minimum temperature yesterday: 70 °F (at 5:51 AM)
Average temperature yesterday: 81 °F

Past Weeks' High & Low Weather Summary

 TemperatureHumidityPressure
High99 °F (Jul 23, 3:51 PM)94% (Jul 23, 3:50 AM)30.09 "Hg (Jul 23, 3:50 AM)
Low70 °F (Jul 23, 6:53 PM)13% (Aug 2, 12:50 PM)29.89 "Hg (Jul 26, 4:50 PM)
Average82 °F68%30.00 "Hg
* Reported Jul 19 10:50 PM — Aug 3 10:50 PM, Holguín, Weather by CustomWeather, © 2015

Note: Actual official high and low records may vary slightly from our data, if they occured in-between our weather recording intervals... More about our weather records

Advertising

Holguín weather history for previous 24 hours

 ConditionsComfort  
Time TempWeatherWind HumidityBarometerVisibility
10:50 PM
Mon, Aug 3
79 °FPassing clouds.6 mph79%30.01 "Hg6 mi
9:50 PM79 °FPassing clouds.7 mph79%29.98 "Hg6 mi
8:50 PM81 °FPassing clouds.6 mph70%29.98 "Hg6 mi
7:50 PM82 °FScattered clouds.8 mph70%29.95 "Hg6 mi
6:50 PM82 °FThundershowers. Scattered clouds.8 mph70%N/A5 mi
5:50 PM86 °FThundershowers. Scattered clouds.13 mph59%N/A5 mi
4:51 PM88 °FScattered clouds.14 mph55%29.89 "HgN/A
3:50 PM95 °FScattered clouds.6 mph36%29.89 "HgN/A
2:50 PM93 °FScattered clouds.10 mph34%29.92 "HgN/A
1:50 PM91 °FScattered clouds.8 mph41%29.95 "HgN/A
12:50 PM91 °FScattered clouds.10 mph38%29.95 "HgN/A
11:50 AM90 °FScattered clouds.12 mph46%29.98 "HgN/A
10:50 AM88 °FScattered clouds.13 mph52%29.98 "HgN/A
9:50 AM84 °FBroken clouds.12 mph66%29.98 "Hg6 mi
8:50 AM81 °FScattered clouds.8 mph79%29.98 "Hg6 mi
7:50 AM75 °FFog.2 mph89%29.95 "Hg4 mi
6:55 AM70 °FFog.2 mph94%29.95 "Hg4 mi
5:51 AM70 °FFog.3 mph94%29.95 "Hg4 mi
4:51 AM72 °FFog.2 mph88%29.95 "Hg4 mi
3:50 AM73 °FFog.5 mph89%29.95 "Hg5 mi
2:50 AM73 °FClear.1 mph89%29.95 "Hg10 mi
1:50 AM73 °FClear.2 mph89%29.98 "Hg10 mi
12:51 AM73 °FPassing clouds.1 mph89%29.98 "HgN/A
Weather by CustomWeather, © 2015

See weather overviewHow to use our weather pages